N2RFA-13 Weather Reports


time (UTC)temp
C
wind
direction
speed
KPH
gust
KPH
rain 1hr
cm
rain 24hr
cm
rain mn
cm
humidity
%
barometer
mb
20260510143009 18 120 0.0 6.4 0.00 1.02 0.00 80 1014.3
20260510141504 17 152 1.6 4.8 0.00 1.02 0.00 80 1014.1
20260510140100 16 125 0.0 3.2 0.00 1.02 0.00 84 1014.2
20260510134616 15 133 0.0 3.2 0.00 1.02 0.00 88 1014.2
20260510133052 14 143 0.0 3.2 0.00 1.02 0.00 91 1014.2
20260510131547 13 139 0.0 1.6 0.00 1.02 0.00 96 1014.2
20260510130043 12 138 0.0 1.6 0.00 1.02 0.00 96 1014.3
20260510124546 11 150 0.0 0.0 0.00 1.02 0.00 96 1013.9
20260510123037 11 150 0.0 0.0 0.00 1.02 0.00 96 1013.8
20260510121533 10 150 0.0 0.0 0.00 1.02 0.00 96 1013.9
20260510120038 10 150 0.0 0.0 0.00 1.02 0.00 96 1013.7
20260510114530 10 150 0.0 0.0 0.00 1.02 0.00 96 1013.4
20260510113029 10 150 0.0 0.0 0.00 1.02 0.00 96 1013.2
20260510111532 10 150 0.0 0.0 0.00 1.02 0.00 96 1013.3
20260510110033 10 150 0.0 0.0 0.00 1.02 0.00 96 1013.2
20260510104527 9 150 0.0 3.2 0.00 1.02 0.00 96 1013.1
20260510103028 9 114 0.0 0.0 0.00 1.02 0.00 96 1012.8
20260510101526 9 114 0.0 0.0 0.00 1.02 0.00 96 1012.8
20260510100026 9 114 0.0 0.0 0.00 1.02 0.00 96 1012.7
20260510094530 9 114 0.0 0.0 0.00 1.02 0.00 96 1012.8
20260510093024 9 114 0.0 0.0 0.00 1.02 0.00 96 1012.7
20260510091527 9 114 0.0 0.0 0.00 1.02 0.00 96 1012.7
20260510090025 9 114 0.0 0.0 0.00 1.02 0.00 95 1012.9
20260510084523 9 114 0.0 0.0 0.00 1.02 0.00 96 1013.1
20260510083022 9 114 0.0 0.0 0.00 1.02 0.00 96 1013.1
20260510081522 9 114 0.0 0.0 0.00 1.02 0.00 95 1013.2
20260510080025 9 114 0.0 1.6 0.00 1.02 0.00 95 1013.2
20260510074519 9 114 0.0 1.6 0.00 1.02 0.00 95 1013.1
20260510073017 10 140 0.0 0.0 0.00 1.02 0.00 95 1012.2
20260510071516 10 140 0.0 0.0 0.00 1.02 0.00 95 1012.3
20260510070014 10 140 0.0 0.0 0.00 1.02 0.00 95 1012.3
20260510064513 10 140 0.0 0.0 0.00 1.02 0.00 95 1012.5
20260510063014 10 140 0.0 0.0 0.00 1.02 0.00 95 1012.6
20260510061524 10 140 0.0 0.0 0.00 1.02 0.00 95 1012.6
20260510060027 10 140 0.0 0.0 0.00 1.02 0.00 95 1012.5
20260510054511 10 140 0.0 0.0 0.00 1.02 0.00 95 1012.4
20260510053009 10 140 0.0 0.0 0.00 1.02 0.00 95 1012.3
20260510051508 10 140 0.0 0.0 0.00 1.02 0.00 95 1012.3
20260510050007 10 140 0.0 0.0 0.00 1.02 0.00 95 1012.4
20260510044505 10 140 0.0 1.6 0.00 1.04 0.00 95 1012.5
20260510043006 10 140 0.0 1.6 0.00 1.04 0.00 95 1012.6
20260510041510 10 140 0.0 0.0 0.00 1.04 0.00 95 1012.4
20260510040100 10 140 0.0 0.0 0.00 1.04 0.00 95 1012.6
20260510034600 10 140 0.0 0.0 0.00 1.04 1.04 95 1012.5
20260510033100 10 140 0.0 0.0 0.00 1.04 1.04 95 1012.3
20260510031628 10 140 0.0 0.0 0.00 1.04 1.04 95 1012.2
20260510030058 10 140 0.0 0.0 0.00 1.04 1.04 95 1012.1
20260510024557 10 140 0.0 0.0 0.00 1.04 1.04 95 1012.2
20260510023101 10 140 0.0 0.0 0.00 1.04 1.04 95 1012.3
20260510021556 10 140 0.0 0.0 0.00 1.04 1.04 94 1012.4
20260510020056 10 140 0.0 0.0 0.00 1.04 1.04 94 1012.3
20260510014555 10 140 0.0 0.0 0.00 1.04 1.04 94 1012.2
20260510013054 10 140 0.0 0.0 0.00 1.04 1.04 93 1012.3
20260510011609 11 140 0.0 1.6 0.00 1.04 1.04 94 1012.2
20260510010105 11 134 0.0 0.0 0.00 1.04 1.04 94 1011.9
20260510004552 11 170 0.0 0.0 0.00 1.04 1.04 94 1011.8
20260510003056 11 169 0.0 0.0 0.00 1.04 1.04 94 1011.6
20260510001552 11 160 0.0 1.6 0.00 1.04 1.04 94 1011.7
20260510000051 11 161 0.0 0.0 0.00 1.04 1.04 93 1011.5
20260509234551 11 160 0.0 0.0 0.00 1.04 1.04 93 1011.5
20260509233050 11 167 0.0 0.0 0.00 1.04 1.04 93 1011.2
20260509231558 11 157 0.0 1.6 0.00 1.04 1.04 93 1011.2
20260509230050 12 178 0.0 1.6 0.00 1.04 1.04 93 1011.2
20260509224547 12 167 0.0 1.6 0.00 1.04 1.04 93 1011.3
20260509223046 12 162 0.0 0.0 0.00 1.04 1.04 93 1011.4
20260509221544 12 163 0.0 0.0 0.00 1.04 1.04 93 1011.6
20260509220046 12 149 0.0 0.0 0.18 1.04 1.04 93 1011.6
20260509214543 12 149 0.0 0.0 0.25 1.04 1.04 93 1011.5
20260509213058 12 149 0.0 0.0 0.28 1.04 1.04 94 1011.5
20260509211608 11 149 0.0 0.0 0.36 1.04 1.04 93 1011.6
20260509210041 11 149 0.0 0.0 0.23 0.86 0.86 93 1011.5
20260509204556 11 149 0.0 0.0 0.23 0.79 0.79 93 1011.7
20260509203044 11 149 0.0 0.0 0.25 0.76 0.76 93 1011.6
20260509201538 11 149 0.0 0.0 0.23 0.69 0.69 92 1011.8
20260509200036 11 145 0.0 3.2 0.30 0.64 0.64 92 1012.0
20260509194538 12 116 0.0 3.2 0.28 0.56 0.56 92 1012.2
20260509193034 12 127 0.0 1.6 0.33 0.51 0.51 92 1012.3
20260509191534 12 134 0.0 1.6 0.36 0.46 0.46 91 1012.3
20260509190043 12 134 0.0 1.6 0.28 0.33 0.33 91 1012.5
20260509184532 12 126 0.0 1.6 0.23 0.25 0.25 90 1012.2
20260509183036 13 126 0.0 1.6 0.15 0.18 0.18 88 1012.5
20260509181530 13 126 0.0 1.6 0.08 0.10 0.10 85 1012.8
20260509180028 14 135 0.0 1.6 0.03 0.05 0.05 85 1013.2
20260509174528 15 114 0.0 4.8 0.00 0.03 0.03 81 1013.0
20260509173027 15 118 0.0 4.8 0.00 0.03 0.03 80 1012.7
20260509171527 15 150 0.0 6.4 0.00 0.03 0.03 78 1012.5
20260509170027 15 134 0.0 1.6 0.00 0.03 0.03 75 1012.3
20260509164524 15 148 0.0 3.2 0.00 0.03 0.03 74 1012.4
20260509163026 15 160 0.0 3.2 0.00 0.03 0.03 74 1012.7
20260509161523 15 162 0.0 3.2 0.00 0.03 0.03 75 1012.6
20260509160019 15 144 0.0 6.4 0.00 0.03 0.03 75 1012.9
20260509154519 15 147 0.0 4.8 0.00 0.03 0.03 76 1013.0
20260509153020 15 136 0.0 4.8 0.00 0.03 0.03 78 1013.1
20260509151514 15 152 1.6 6.4 0.00 0.03 0.03 79 1013.2
20260509150010 14 166 0.0 8.0 0.00 0.03 0.03 82 1013.4
20260509144507 13 140 0.0 1.6 0.00 0.03 0.03 84 1013.3